sat.trackr.live / text

‹ back to catalog

STARLINK-36295

NORAD 68667 · 2026-077F

PAYLOAD ACTIVE UNKNOWN

§ Identity

Operator
Country
US
Launch date
2026-04-11
Launch site
AFWTR
Launch vehicle
Mass (kg)
RCS (m²)

Purposes: comms

External: N2YO · Heavens-Above · Gunter

§ Orbital elements

Epoch: 2026-09-18T08:49:25.727232Z

Period
93.91 min
Inclination
97.2829°
Eccentricity
0.0003291
Mean motion
15.33443951 rev/d
Perigee alt
463.3 km
Apogee alt
467.8 km
Semi-major
6,843.7 km
B*
2.9602e-4
RAAN
131.2527°
Arg perigee
86.4824°
Mean anomaly
273.6795°
Rev number
2,468

§ Raw data

STARLINK-362951 68667U 26077F   26261.36765888  .00009494  00000+0  29602-3 0  99902 68667  97.2829 131.2527 0003291  86.4824 273.6795 15.33443951 24687

JSON: /api/v1/satellites/68667 · /tle

For live sub-satellite position, see the globe view (requires WebGL).

§ Visibility from observer

Set your observer location to see the next 7 days of passes ≥ 10°. The values pass through the URL so the page stays shareable.

No JS? Fill the form by hand. The geolocation button needs JavaScript.